TimeCDT,TemperatureF,Dew PointF,Humidity,Sea Level PressureIn,VisibilityMPH,Wind Direction,Wind SpeedMPH,Gust SpeedMPH,PrecipitationIn,Events,Conditions,WindDirDegrees,DateUTC
12:12 AM,55.9,54.7,96,29.93,4.0,ESE,12.7,-,N/A,,Overcast,110,2013-05-18 05:12:00
12:33 AM,56.3,54.9,95,29.93,4.0,ESE,12.7,-,N/A,,Overcast,120,2013-05-18 05:33:00
12:53 AM,56.3,54.9,95,29.92,3.0,ESE,15.0,18.4,N/A,Thunderstorm,Overcast,120,2013-05-18 05:53:00
1:13 AM,56.3,55.0,96,29.91,3.0,ESE,15.0,20.7,N/A,,Overcast,120,2013-05-18 06:13:00
1:33 AM,56.5,55.4,96,29.91,3.0,ESE,16.1,-,N/A,Thunderstorm,Overcast,120,2013-05-18 06:33:00
1:53 AM,56.7,55.4,96,29.90,3.0,ESE,12.7,18.4,N/A,,Overcast,120,2013-05-18 06:53:00
2:13 AM,57.2,55.8,95,29.91,3.0,ESE,12.7,-,0.01,Rain-Thunderstorm,Heavy Thunderstorms and Rain,120,2013-05-18 07:13:00
2:33 AM,57.2,56.3,97,29.90,2.5,ESE,18.4,23.0,0.39,Rain-Thunderstorm,Heavy Thunderstorms and Rain,110,2013-05-18 07:33:00
2:53 AM,59.5,57.6,93,29.88,7.0,East,10.4,21.9,0.91,Thunderstorm,Thunderstorm,100,2013-05-18 07:53:00
3:13 AM,58.5,57.2,96,29.89,7.0,SE,10.4,-,N/A,Thunderstorm,Overcast,140,2013-05-18 08:13:00
3:33 AM,58.1,56.8,96,29.90,4.0,ESE,9.2,-,0.12,Rain-Thunderstorm,Light Thunderstorms and Rain,120,2013-05-18 08:33:00
3:53 AM,58.1,57.0,96,29.90,3.0,SE,8.1,-,0.23,Rain-Thunderstorm,Heavy Thunderstorms and Rain,130,2013-05-18 08:53:00
4:13 AM,57.6,57.0,98,29.90,2.5,ESE,9.2,-,0.03,Rain-Thunderstorm,Light Thunderstorms and Rain,110,2013-05-18 09:13:00
4:33 AM,57.7,57.4,99,29.89,3.0,East,11.5,-,0.03,Thunderstorm,Overcast,100,2013-05-18 09:33:00
4:53 AM,58.1,57.6,98,29.91,4.0,ESE,6.9,-,0.03,Thunderstorm,Mostly Cloudy,110,2013-05-18 09:53:00
5:13 AM,58.1,58.1,100,29.90,4.0,ESE,8.1,-,N/A,Thunderstorm,Overcast,110,2013-05-18 10:13:00
5:33 AM,58.1,57.7,99,29.91,5.0,East,5.8,-,N/A,,Mostly Cloudy,90,2013-05-18 10:33:00
5:53 AM,57.6,57.4,99,29.91,5.0,East,5.8,-,0.02,Thunderstorm,Mostly Cloudy,100,2013-05-18 10:53:00
6:13 AM,57.4,57.2,99,29.91,4.0,Calm,Calm,-,N/A,Thunderstorm,Scattered Clouds,0,2013-05-18 11:13:00
6:33 AM,57.6,57.4,99,29.94,4.0,Calm,Calm,-,N/A,Rain-Thunderstorm,Light Thunderstorms and Rain,0,2013-05-18 11:33:00
6:53 AM,57.4,57.2,99,29.93,3.0,ENE,5.8,-,0.03,Rain-Thunderstorm,Rain,60,2013-05-18 11:53:00
7:13 AM,57.4,57.2,99,29.92,2.5,NE,5.8,-,N/A,,Overcast,50,2013-05-18 12:13:00
7:33 AM,57.4,57.2,99,29.93,2.5,Calm,Calm,-,N/A,Rain,Light Rain,0,2013-05-18 12:33:00
7:52 AM,58.1,57.9,99,29.94,3.0,East,4.6,-,0.02,Rain-Thunderstorm,Rain,90,2013-05-18 12:52:00
8:13 AM,58.3,58.1,99,29.92,3.0,ESE,5.8,-,N/A,Rain,Light Rain,110,2013-05-18 13:13:00
8:33 AM,60.1,59.9,99,29.92,4.0,SE,11.5,-,N/A,Thunderstorm,Overcast,130,2013-05-18 13:33:00
8:52 AM,60.4,60.3,99,29.90,5.0,SE,11.5,-,N/A,Thunderstorm,Overcast,130,2013-05-18 13:52:00
9:13 AM,61.3,61.0,99,29.90,5.0,SE,11.5,17.3,N/A,,Overcast,130,2013-05-18 14:13:00
9:33 AM,60.8,60.1,97,29.90,4.0,SE,10.4,19.6,N/A,,Overcast,140,2013-05-18 14:33:00
9:53 AM,61.2,60.1,96,29.90,5.0,SE,12.7,18.4,N/A,,Overcast,140,2013-05-18 14:53:00
10:13 AM,61.0,59.7,96,29.89,4.0,SE,18.4,-,N/A,,Overcast,140,2013-05-18 15:13:00
10:33 AM,61.5,60.1,95,29.90,5.0,SSE,13.8,19.6,N/A,,Overcast,150,2013-05-18 15:33:00
10:53 AM,62.1,60.3,94,29.90,5.0,SSE,12.7,-,N/A,,Overcast,150,2013-05-18 15:53:00
11:13 AM,63.5,61.2,92,29.89,7.0,SSE,10.4,17.3,N/A,,Overcast,150,2013-05-18 16:13:00
11:33 AM,65.3,62.1,89,29.88,7.0,SSE,11.5,17.3,N/A,,Mostly Cloudy,150,2013-05-18 16:33:00
11:52 AM,66.0,62.2,88,29.88,7.0,SSE,10.4,-,N/A,,Mostly Cloudy,150,2013-05-18 16:52:00
12:13 PM,67.3,62.6,85,29.87,7.0,SSE,10.4,17.3,N/A,,Mostly Cloudy,150,2013-05-18 17:13:00
12:33 PM,68.0,62.6,83,29.87,7.0,SSE,15.0,20.7,N/A,,Scattered Clouds,150,2013-05-18 17:33:00
12:53 PM,68.0,62.8,83,29.86,7.0,SSE,11.5,18.4,N/A,,Scattered Clouds,150,2013-05-18 17:53:00
1:13 PM,68.5,62.8,82,29.86,7.0,SSE,13.8,17.3,N/A,,Mostly Cloudy,150,2013-05-18 18:13:00
1:33 PM,68.9,63.1,82,29.86,7.0,SSE,11.5,16.1,N/A,,Mostly Cloudy,150,2013-05-18 18:33:00
2:13 PM,68.4,63.1,83,29.85,7.0,SE,9.2,-,N/A,,Mostly Cloudy,140,2013-05-18 19:13:00
2:33 PM,69.6,63.9,82,29.86,7.0,SSE,6.9,-,N/A,,Scattered Clouds,160,2013-05-18 19:33:00
2:53 PM,69.8,64.2,82,29.84,5.0,ESE,8.1,-,N/A,,Haze,120,2013-05-18 19:53:00
3:13 PM,71.1,64.9,81,29.84,7.0,ESE,8.1,-,N/A,,Clear,120,2013-05-18 20:13:00
3:33 PM,73.8,65.5,75,29.84,7.0,SE,10.4,-,N/A,,Clear,130,2013-05-18 20:33:00
3:53 PM,74.1,65.8,75,29.84,7.0,SE,8.1,-,N/A,,Scattered Clouds,140,2013-05-18 20:53:00
4:13 PM,75.0,65.8,73,29.84,10.0,SE,9.2,-,N/A,,Scattered Clouds,130,2013-05-18 21:13:00
4:33 PM,75.2,66.2,73,29.84,10.0,SE,11.5,-,N/A,,Scattered Clouds,130,2013-05-18 21:33:00
5:13 PM,75.2,64.8,70,29.83,10.0,SE,9.2,-,N/A,,Clear,130,2013-05-18 22:13:00
5:32 PM,74.8,65.5,73,29.83,10.0,SE,5.8,-,N/A,,Clear,130,2013-05-18 22:32:00
5:53 PM,74.3,64.4,71,29.83,10.0,SE,6.9,-,N/A,,Clear,130,2013-05-18 22:53:00
6:13 PM,73.4,64.2,73,29.83,10.0,SE,4.6,-,N/A,Rain,Light Rain,140,2013-05-18 23:13:00
6:33 PM,72.1,64.9,78,29.82,10.0,ESE,3.5,-,N/A,Rain,Light Rain,120,2013-05-18 23:33:00
6:53 PM,72.0,64.8,78,29.82,10.0,Calm,Calm,-,N/A,,Scattered Clouds,0,2013-05-18 23:53:00
7:13 PM,73.4,64.6,74,29.82,10.0,ESE,6.9,-,N/A,,Scattered Clouds,120,2013-05-19 00:13:00
7:33 PM,73.6,63.5,71,29.81,10.0,SE,5.8,-,N/A,,Clear,130,2013-05-19 00:33:00
7:53 PM,73.2,63.0,70,29.81,10.0,ESE,5.8,-,N/A,,Clear,120,2013-05-19 00:53:00
8:13 PM,72.3,63.0,72,29.81,10.0,ESE,5.8,-,N/A,,Clear,120,2013-05-19 01:13:00
8:33 PM,72.0,63.1,74,29.80,10.0,SE,6.9,-,N/A,,Clear,130,2013-05-19 01:33:00
8:52 PM,72.5,62.6,71,29.80,10.0,ESE,5.8,-,N/A,,Clear,120,2013-05-19 01:52:00
9:13 PM,71.1,62.6,75,29.79,10.0,ESE,6.9,-,N/A,,Clear,110,2013-05-19 02:13:00
9:33 PM,70.3,62.6,76,29.79,10.0,ESE,5.8,-,N/A,,Clear,120,2013-05-19 02:33:00
9:53 PM,69.8,62.6,78,29.78,10.0,ESE,6.9,-,N/A,,Clear,120,2013-05-19 02:53:00
10:13 PM,70.0,62.6,77,29.78,10.0,East,6.9,-,N/A,,Clear,100,2013-05-19 03:13:00
10:33 PM,69.4,62.2,78,29.79,10.0,ESE,5.8,-,N/A,,Clear,120,2013-05-19 03:33:00
10:53 PM,69.1,62.2,79,29.79,10.0,ESE,6.9,-,N/A,,Clear,120,2013-05-19 03:53:00
11:13 PM,68.9,61.7,78,29.79,10.0,SE,5.8,-,N/A,,Clear,130,2013-05-19 04:13:00
11:33 PM,68.9,61.7,78,29.78,10.0,SE,6.9,-,N/A,,Clear,130,2013-05-19 04:33:00